Regional Weather Roundup
Issued by NWS

Home | Current Version | Previous Version | Text Only | Print | Product List | Glossary On
Versions: 1 2 3 4 5 6 7 8 9 10 11 12 13 14 15 16 17 18 19 20 21 22 23 24 25 26 27 28 29 30 31 32 33 34 35 36 37 38 39 40 41 42 43 44 45 46 47 48 49 50
000
ASUS45 KBOU 291710
RWRCO

WEATHER ROUNDUP FOR COLORADO
NATIONAL WEATHER SERVICE DENVER/BOULDER CO
1100 AM MDT MON JUN 29 2015

NOTE: "FAIR" INDICATES FEW OR NO CLOUDS BELOW 12000 FEET WITH NO
SIGNIFICANT WEATHER AND/OR OBSTRUCTIONS TO VISIBILITY.

COZ001>005-013-030-031-291800-
...NORTHWEST COLORADO...

CITY           SKY/WX    TMP DP  RH WIND       PRES   REMARKS
CRAIG          SUNNY     82  50  32 N7        30.29F
HAYDEN         SUNNY     79  45  29 NW6       30.32S
MEEKER         SUNNY     80  48  32 S5        30.30F
MOUNT WERNER   NOT AVBL
STEAMBOAT SPGS SUNNY     74  47  38 CALM      30.34S
WALDEN         SUNNY     72  41  33 NW6       30.44S
$$

COZ006>008-011-291800-
...WEST CENTRAL VALLEYS...

CITY           SKY/WX    TMP DP  RH WIND       PRES   REMARKS
GRAND JUNCTION SUNNY     88  44  21 SE9       30.16F
MONTROSE       SUNNY     86  44  23 CALM      30.25F
EAGLE          MOSUNNY   77  45  31 CALM      30.34F
RIFLE          SUNNY     83  45  26 NW5       30.22F
DELTA          SUNNY     87  44  22 SW3       30.21F
NUCLA          SUNNY     82  43  24 NW6       30.29F
$$

COZ017>023-064>068-291800-
...SOUTHWEST COLORADO...

CITY           SKY/WX    TMP DP  RH WIND       PRES   REMARKS
DURANGO        SUNNY     79  44  28 VRB3      30.31F
CORTEZ         SUNNY     84  43  23 CALM      30.26F
PAGOSA SPRINGS SUNNY     73  44  35 S6        30.40F
TELLURIDE      MOSUNNY   73  40  31 CALM      30.53F
WOLF CREEK PAS NOT AVBL
$$

COZ009-010-012-014-032>034-037-058>063-291800-
...CENTRAL COLORADO...

CITY           SKY/WX    TMP DP  RH WIND       PRES   REMARKS
ASPEN          SUNNY     76  45  33 VRB3      30.40S
BUENA VISTA    PTSUNNY   71  47  43 CALM      30.40F
COPPER MTN     SUNNY     61  32  33 W16G26    30.74R
BERTHOUD PASS  FAIR      52  41  66 MISG      30.79R
COTTONWOOD PAS NOT AVBL
GUNNISON       SUNNY     70  43  37 CALM      30.45F
KREMMLING      SUNNY     73  43  33 W5        30.41S
LEADVILLE      PTSUNNY   67  37  33 W9        30.54F
MONARCH PASS   SUNNY     57  41  54 W12       30.82S
SALIDA         MOSUNNY   72  49  43 CALM      30.45S
SUNLIGHT       MOSUNNY   64  43  45 W3        30.67R
WILKERSON PASS MOSUNNY   59  41  51 S5        30.70S
$$

COZ069>075-291800-
...SAN LUIS VALLEY/SANGRE DE CRISTO MOUNTAINS...

CITY           SKY/WX    TMP DP  RH WIND       PRES   REMARKS
ALAMOSA        MOSUNNY   69  46  43 CALM      30.39F
LA VETA PASS   MOSUNNY   63  43  48 MISG      30.58S
SAGUACHE       SUNNY     70  52  52 S7        30.41F
$$

COZ035-036-038>040-291800-
...NORTHERN COLORADO FRONT RANGE...

CITY           SKY/WX    TMP DP  RH WIND       PRES   REMARKS
DENVER INTL AP MOSUNNY   79  55  43 NW7       30.26S
DMNS CITY PARK   N/A     80  51  35 N3        30.26S
AURORA         MOSUNNY   76  56  50 W5        30.28F
FRONT RANGE AP MOSUNNY   77  59  53 MISG      30.28S
ERIE MUNI ARPT SUNNY     78  51  38 CALM      30.25S
BOULDER MUN AP SUNNY     77  52  41 N5        30.25S
CENTENNIAL     MOSUNNY   75  53  46 VRB5      30.29F
BROOMFIELD     MOSUNNY   77  50  38 N6        30.28F
FORT COLLINS   SUNNY     77  54  44 NW3       30.25S
LONGMONT       SUNNY     83  54  36 N3        30.25S
$$

COZ041-046-047-076>085-087-088-291800-
...PIKES PEAK/PALMER DIVIDE AND SOUTHERN FOOTHILLS...

CITY           SKY/WX    TMP DP  RH WIND       PRES   REMARKS
COLO. SPRINGS  MOSUNNY   73  52  47 E12       30.33S
A. F. ACADEMY  SUNNY     75  52  45 VRB3      30.34S
ELLICOTT       MOSUNNY  N/A N/A N/A E7        30.31S
FALCON         MOSUNNY   70  51  51 E5        30.39R
FORT CARSON    NOT AVBL
LIMON          MOSUNNY   71  58  63 VRB5      30.28R
MONUMENT HILL  CLOUDY    68  52  56 N5          N/A
TRINIDAD       SUNNY     81  48  31 E12       30.27F
$$

COZ042>045-048>051-090-091-291800-
...NORTHEAST COLORADO...

CITY           SKY/WX    TMP DP  RH WIND       PRES   REMARKS
GREELEY ARPT   SUNNY     79  54  41 NW3       30.23F
AKRON          SUNNY     83  51  33 SW12      30.20R
BURLINGTON     MOSUNNY   81  52  36 S14       30.17R
WRAY           SUNNY     90  48  23 NE6       30.13S
STERLING       SUNNY     84  50  30 W6        30.16R
HOLYOKE        SUNNY     86  52  30 N10       30.15R
FORT MORGAN    NOT AVBL
$$

COZ086-089-092>099-291800-
...SOUTHEAST COLORADO...

CITY           SKY/WX    TMP DP  RH WIND       PRES   REMARKS
PUEBLO         SUNNY     80  57  45 E8        30.22S
LA JUNTA       CLOUDY    72  61  68 NE6       30.20F
LAMAR          CLOUDY    75  58  55 NE7       30.16S
SPRINGFIELD      N/A     77  52  41 E8        30.19S
$$


USA.gov is the U.S. government's official web portal to all federal, state and local government web resources and services.